EDT,Max TemperatureF,Mean TemperatureF,Min TemperatureF,Max Dew PointF,MeanDew PointF,Min DewpointF,Max Humidity, Mean Humidity, Min Humidity, Max Sea Level PressureIn, Mean Sea Level PressureIn, Min Sea Level PressureIn, Max VisibilityMiles, Mean VisibilityMiles, Min VisibilityMiles, Max Wind SpeedMPH, Mean Wind SpeedMPH, Max Gust SpeedMPH,PrecipitationIn, CloudCover, Events, WindDirDegrees
2012-10-1,69,58,46,55,48,45,100,74,40,30.00,29.95,29.89,10,8,2,10,6,,0.01,1,Rain,279
2012-10-2,64,62,59,64,60,55,100,95,82,30.01,29.98,29.95,10,4,0,13,2,20,1.51,8,Fog-Rain,73
2012-10-3,75,70,64,72,67,64,100,95,78,30.16,30.08,30.00,10,2,0,9,2,,0.00,5,Fog,275
2012-10-4,75,68,60,70,66,57,100,91,73,30.18,30.14,30.10,10,5,0,15,2,,0.00,2,Fog-Rain,304
2012-10-5,78,68,57,59,56,54,94,70,47,30.14,30.08,29.97,10,10,7,12,6,,0.00,0,,276
2012-10-6,69,60,51,61,54,39,100,77,59,30.04,29.93,29.86,10,9,1,20,5,28,0.00,1,,283
2012-10-7,53,48,42,46,42,37,100,80,54,30.15,30.10,30.04,10,9,2,10,4,,0.08,4,Rain,310
2012-10-8,50,44,37,45,40,37,100,84,66,30.31,30.24,30.16,10,10,3,12,6,,0.01,2,Rain,337
2012-10-9,53,50,46,54,48,41,100,92,81,30.24,30.17,30.08,10,7,0,8,5,,0.06,8,Fog-Rain,22
2012-10-10,64,56,48,55,50,39,100,79,48,30.08,29.97,29.87,10,6,0,16,5,25,0.00,5,Fog,282
2012-10-11,57,50,42,39,35,32,81,60,38,30.27,30.19,30.06,10,10,10,17,7,23,0.00,0,,289
2012-10-12,57,48,39,41,35,28,93,62,38,30.45,30.23,30.13,10,10,10,20,6,30,0.00,0,,311
2012-10-13,55,44,33,36,30,27,81,59,38,30.53,30.44,30.32,10,10,10,8,3,,0.00,0,,172
2012-10-14,69,56,44,55,48,36,100,71,49,30.30,30.14,29.94,10,10,9,10,4,20,0.00,1,,186
2012-10-15,66,60,55,63,58,48,100,88,77,29.95,29.78,29.70,10,8,1,13,5,,0.64,3,Rain,219
2012-10-16,59,52,42,48,41,39,87,69,48,29.95,29.86,29.77,10,10,10,20,11,25,0.00,2,,306
2012-10-17,62,50,39,46,42,37,100,75,45,30.04,29.99,29.94,10,10,4,6,3,,0.00,0,,209
2012-10-18,66,55,44,59,50,45,100,78,49,30.01,29.96,29.87,10,8,3,14,4,22,0.00,3,,134
2012-10-19,71,64,57,66,63,57,100,93,78,29.82,29.73,29.65,10,7,0,12,5,17,0.75,6,Fog-Rain,151
2012-10-20,62,54,46,59,47,39,100,75,48,29.91,29.78,29.68,10,8,0,15,5,21,0.00,1,Fog,294
2012-10-21,62,53,44,45,42,39,87,69,45,30.11,30.04,29.93,10,10,10,17,9,23,0.00,0,,292
2012-10-22,64,54,44,45,42,37,82,62,45,30.19,30.14,30.11,10,10,5,13,9,17,0.00,0,,287
2012-10-23,71,60,50,57,52,43,94,74,60,30.17,30.11,30.07,10,10,5,12,3,,0.01,2,Rain,262
2012-10-24,77,65,53,59,55,52,100,79,47,30.19,30.13,30.09,10,7,3,8,1,,0.00,1,,82
2012-10-25,62,60,57,59,57,57,100,94,82,30.26,30.23,30.19,8,4,0,8,6,,0.00,8,Fog,116
2012-10-26,64,60,57,57,57,55,100,88,77,30.24,30.18,30.11,10,7,2,9,3,,0.00,7,,90
2012-10-27,64,60,57,57,54,52,94,79,68,30.11,29.99,29.91,10,10,10,12,6,20,0.00,5,,69
2012-10-28,57,54,51,54,49,43,100,84,67,29.91,29.79,29.65,10,8,2,13,7,24,1.20,4,Rain,37
2012-10-29,57,54,50,57,50,46,100,93,77,29.63,29.10,28.34,10,4,1,36,16,45,11.84,7,Rain,357
2012-10-30,48,44,39,48,41,37,100,96,87,29.47,29.19,28.51,10,5,2,22,13,38,0.44,8,Rain,146
2012-10-31,46,42,39,39,38,36,100,85,71,29.62,29.55,29.46,10,8,2,9,2,,0.00,8,,242